CW1187 Weather Reports


Display with metric or nautical units.
time (UTC)temp
F
wind
direction
speed
MPH
gust
MPH
rain 1hr
in
rain 24hr
in
rain mn
in
humidity
%
barometer
mb
20260906022945 73 57 1.0 3.0 0.00 0.00 0.00 86 1014.0
20260906021725 74 57 1.0 4.0 0.00 0.00 0.00 85 1014.0
20260906020430 73 51 3.0 5.0 0.00 0.00 0.00 83 1013.8
20260906013352 74 49 1.0 3.0 0.00 0.00 0.00 81 1013.4
20260906012942 74 48 1.0 4.0 0.00 0.00 0.00 80 1013.3
20260906011422 74 48 2.0 4.0 0.00 0.00 0.00 79 1013.3
20260906010953 74 53 1.0 2.0 0.00 0.00 0.00 78 1013.0
20260906010723 74 53 1.0 2.0 0.00 0.00 0.00 78 1013.0
20260906010446 75 52 0.0 2.0 0.00 0.00 0.00 78 1013.0
20260906005648 75 52 1.0 3.0 0.00 0.00 0.00 77 1013.0
20260906005503 75 52 1.0 3.0 0.00 0.00 0.00 77 1012.8
20260906005428 75 52 1.0 3.0 0.00 0.00 0.00 77 1012.8
20260906002141 77 49 2.0 4.0 0.00 0.00 0.00 75 1012.5
20260906001038 77 0 0.0 2.0 0.00 0.00 0.00 72 1012.3
20260906000540 77 16 0.0 2.0 0.00 0.00 0.00 73 1012.3
20260905235435 77 0 0.0 2.0 0.00 0.00 0.00 75 1012.5
20260905234701 77 0 0.0 3.0 0.00 0.00 0.00 76 1012.4
20260905234329 77 39 1.0 3.0 0.00 0.00 0.00 76 1012.4
20260905232726 79 15 0.0 8.0 0.00 0.00 0.00 75 1012.3
20260905232437 79 348 2.0 8.0 0.00 0.00 0.00 79 1012.4
20260905231641 80 360 2.0 9.0 0.00 0.00 0.00 72 1012.5
20260905231349 80 24 1.0 9.0 0.00 0.00 0.00 71 1012.5
20260905230929 81 360 3.0 16.0 0.00 0.00 0.00 70 1012.8
20260905225851 87 360 6.0 14.0 0.00 0.00 0.00 68 1012.8
20260905224937 87 329 2.0 5.0 0.00 0.00 0.00 67 1012.4
20260905223557 88 0 1.0 3.0 0.00 0.00 0.00 66 1012.3
20260905220653 91 279 1.0 7.0 0.00 0.00 0.00 60 1011.6
20260905215018 91 288 1.0 4.0 0.00 0.00 0.00 59 1012.0
20260905213941 91 316 1.0 4.0 0.00 0.00 0.00 58 1011.8
20260905212417 92 313 2.0 7.0 0.00 0.00 0.00 57 1011.9
20260905211232 92 264 2.0 7.0 0.00 0.00 0.00 56 1011.9
20260905205929 92 327 2.0 6.0 0.00 0.01 0.00 55 1012.1
20260905204935 93 333 1.0 6.0 0.00 0.01 0.00 57 1012.4
20260905204219 92 285 2.0 6.0 0.00 0.01 0.00 55 1012.5
20260905203839 92 0 2.0 6.0 0.00 0.01 0.00 56 1012.5
20260905203034 93 293 2.0 6.0 0.00 0.01 0.00 54 1012.6
20260905201927 93 321 2.0 6.0 0.00 0.01 0.00 55 1012.7
20260905201343 94 348 2.0 8.0 0.00 0.01 0.00 54 1012.8
20260905200726 93 295 2.0 8.0 0.00 0.01 0.00 55 1012.8
20260905194948 95 283 1.0 8.0 0.00 0.57 0.00 53 1012.9
20260905194131 95 255 3.0 8.0 0.00 0.57 0.00 54 1013.0
20260905193749 95 241 2.0 7.0 0.00 0.57 0.00 53 1013.1
20260905193456 95 259 3.0 8.0 0.00 0.57 0.00 53 1013.1
20260905192055 94 252 3.0 7.0 0.00 0.57 0.00 59 1013.4
20260905191457 94 254 2.0 6.0 0.00 0.57 0.00 55 1013.5
20260905190744 94 267 2.0 7.0 0.00 0.57 0.00 55 1013.5
20260905190028 94 250 2.0 6.0 0.00 0.57 0.00 53 1013.6
20260905185856 94 250 2.0 6.0 0.00 0.57 0.00 53 1013.6
20260905185101 93 261 2.0 7.0 0.00 0.57 0.00 60 1013.7
20260905184903 93 245 2.0 8.0 0.00 0.57 0.00 58 1013.8
20260905184017 93 253 2.0 8.0 0.00 0.57 0.00 56 1013.9
20260905183841 93 253 2.0 8.0 0.00 0.57 0.00 56 1013.9
20260905183549 93 253 2.0 8.0 0.00 0.57 0.00 56 1013.9
20260905183133 93 254 3.0 8.0 0.00 0.57 0.00 55 1013.8
20260905180957 91 248 2.0 8.0 0.00 0.57 0.00 57 1013.9
20260905175919 90 246 3.0 9.0 0.00 0.57 0.00 57 1013.9
20260905175500 90 260 4.0 9.0 0.00 0.57 0.00 57 1014.0
20260905174501 89 242 3.0 9.0 0.00 0.57 0.00 64 1014.1
20260905172037 87 244 3.0 7.0 0.00 0.57 0.00 63 1014.1
20260905170524 84 205 2.0 6.0 0.00 0.57 0.00 63 1014.5
20260905165625 84 202 2.0 7.0 0.00 0.57 0.00 64 1014.7
20260905163746 85 221 1.0 8.0 0.00 0.57 0.00 63 1015.0
20260905160846 85 163 3.0 9.0 0.00 0.57 0.00 61 1015.4
20260905154038 82 202 2.0 7.0 0.00 0.57 0.00 67 1015.1
20260905151933 81 162 4.0 10.0 0.00 0.57 0.00 64 1014.7
20260905151043 80 164 3.0 9.0 0.00 0.57 0.00 66 1014.7
20260905151041 80 134 3.0 8.0 0.00 0.57 0.00 66 1014.7
20260905150937 80 134 3.0 8.0 0.00 0.57 0.00 66 1014.7
20260905145626 80 109 4.0 11.0 0.00 0.57 0.00 69 1014.7
20260905145441 79 147 4.0 11.0 0.00 0.57 0.00 67 1015.0
20260905144437 79 165 3.0 8.0 0.00 0.57 0.00 70 1015.1
20260905143459 78 94 2.0 8.0 0.00 0.57 0.00 70 1015.2
20260905142958 78 108 4.0 8.0 0.00 0.57 0.00 71 1015.2
20260905141920 78 154 3.0 7.0 0.00 0.57 0.00 76 1015.3
20260905141219 77 186 3.0 12.0 0.00 0.57 0.00 72 1015.2
20260905140853 77 178 3.0 13.0 0.00 0.57 0.00 72 1015.1
20260905135552 76 152 4.0 11.0 0.00 0.57 0.00 74 1015.1
20260905135419 76 119 5.0 11.0 0.00 0.57 0.00 74 1015.3
20260905134053 75 83 3.0 10.0 0.00 0.57 0.00 79 1015.5
20260905133418 75 96 3.0 9.0 0.00 0.57 0.00 76 1015.6
20260905132520 74 103 2.0 7.0 0.00 0.57 0.00 78 1015.9
20260905132348 74 103 2.0 7.0 0.00 0.57 0.00 78 1015.9
20260905131403 74 123 3.0 11.0 0.00 0.57 0.00 78 1015.8
20260905125934 73 102 3.0 9.0 0.00 0.57 0.00 79 1015.7
20260905125228 72 98 2.0 9.0 0.00 0.57 0.00 79 1015.6
20260905124525 72 108 1.0 8.0 0.00 0.57 0.00 80 1015.6
20260905123524 71 113 1.0 10.0 0.00 0.57 0.00 80 1015.1
20260905123431 71 113 1.0 10.0 0.00 0.57 0.00 80 1015.1
20260905123042 71 163 3.0 10.0 0.00 0.57 0.00 80 1015.2
20260905121955 71 95 3.0 10.0 0.00 0.57 0.00 79 1015.4
20260905121424 71 160 2.0 7.0 0.00 0.57 0.00 79 1015.4
20260905115457 71 117 2.0 4.0 0.00 0.57 0.00 79 1015.3
20260905112919 71 56 2.0 6.0 0.00 0.57 0.00 80 1015.5
20260905112340 71 53 4.0 7.0 0.00 0.57 0.00 80 1015.7
20260905112016 71 55 4.0 7.0 0.00 0.57 0.00 80 1015.6
20260905111856 71 55 4.0 7.0 0.00 0.57 0.00 80 1015.6
20260905111222 71 46 3.0 7.0 0.00 0.57 0.00 80 1015.5
20260905110353 71 53 3.0 9.0 0.00 0.57 0.00 80 1015.4
20260905105113 71 53 3.0 8.0 0.00 0.57 0.00 81 1015.3
20260905104941 71 52 5.0 11.0 0.00 0.57 0.00 81 1015.5
20260905104028 71 63 5.0 11.0 0.00 0.57 0.00 80 1015.6
20260905103519 71 57 6.0 11.0 0.00 0.57 0.00 80 1015.6
20260905102951 71 58 5.0 14.0 0.00 0.57 0.00 80 1015.6
20260905101651 72 63 7.0 15.0 0.00 0.57 0.00 79 1015.4
20260905101326 72 67 7.0 15.0 0.00 0.57 0.00 80 1015.3
20260905095531 74 62 8.0 14.0 0.00 0.57 0.00 84 1015.0
20260905095400 75 217 1.0 3.0 0.00 0.57 0.00 88 1014.4
20260905094458 75 0 0.0 1.0 0.00 0.57 0.00 88 1014.0
20260905093701 75 0 0.0 1.0 0.00 0.57 0.00 88 1014.0
20260905093318 75 0 0.0 1.0 0.00 0.57 0.00 88 1014.0
20260905092049 75 0 0.0 0.0 0.00 0.57 0.00 87 1013.9
20260905091940 75 0 0.0 0.0 0.00 0.57 0.00 87 1014.0
20260905090834 75 0 0.0 0.0 0.00 0.57 0.00 87 1014.1
20260905090424 75 0 0.0 0.0 0.00 0.57 0.00 86 1014.1
20260905084940 75 0 0.0 0.0 0.00 0.57 0.00 85 1014.0
20260905084904 75 0 0.0 0.0 0.00 0.57 0.00 85 1014.0
20260905083838 76 0 0.0 0.0 0.00 0.57 0.00 85 1014.0
20260905082640 76 0 0.0 0.0 0.00 0.57 0.00 84 1013.9
20260905082321 76 0 0.0 0.0 0.00 0.57 0.00 84 1013.9
20260905080802 76 0 0.0 1.0 0.00 0.57 0.00 84 1013.7
20260905080158 76 0 0.0 1.0 0.00 0.57 0.00 84 1013.8
20260905075927 76 0 0.0 1.0 0.00 0.57 0.00 84 1013.6
20260905075755 76 0 0.0 1.0 0.00 0.57 0.00 84 1013.6
20260905073517 76 204 1.0 4.0 0.00 0.57 0.00 84 1012.9
20260905072918 76 195 1.0 4.0 0.00 0.57 0.00 84 1012.9
20260905072519 76 210 1.0 4.0 0.00 0.57 0.00 83 1013.0
20260905071044 76 221 1.0 3.0 0.00 0.57 0.00 84 1013.1
20260905065939 76 0 0.0 2.0 0.00 0.57 0.00 84 1013.2
20260905065306 76 0 0.0 2.0 0.00 0.57 0.00 84 1013.3
20260905064628 76 0 0.0 0.0 0.00 0.57 0.00 84 1013.5
20260905064433 76 0 0.0 2.0 0.00 0.57 0.00 84 1013.4
20260905062328 76 0 0.0 2.0 0.00 0.57 0.00 84 1013.8
20260905061953 76 0 0.0 3.0 0.00 0.57 0.00 84 1013.9
20260905060841 76 177 1.0 4.0 0.00 0.57 0.00 84 1014.0
20260905060751 76 177 1.0 4.0 0.00 0.57 0.00 84 1014.0
20260905053900 76 180 0.0 2.0 0.00 0.57 0.00 84 1014.3
20260905053035 77 0 0.0 2.0 0.00 0.57 0.00 83 1014.3
20260905051447 77 0 1.0 3.0 0.00 0.57 0.00 83 1014.5
20260905045728 77 180 1.0 4.0 0.00 0.57 0.00 83 1014.6
20260905045538 77 180 1.0 4.0 0.00 0.57 0.00 83 1014.6
20260905044159 77 175 2.0 4.0 0.00 0.57 0.00 83 1014.6
20260905043459 77 171 1.0 4.0 0.00 0.57 0.00 83 1014.6
20260905042941 77 173 2.0 4.0 0.00 0.57 0.00 83 1014.7
20260905040452 77 164 0.0 2.0 0.00 0.57 0.00 82 1014.8
20260905035233 77 164 0.0 2.0 0.00 0.57 0.57 82 1014.8
20260905034832 77 0 0.0 2.0 0.00 0.57 0.57 82 1014.9
20260905034418 77 165 0.0 2.0 0.00 0.57 0.57 82 1014.8
20260905033833 77 0 0.0 2.0 0.00 0.57 0.57 82 1014.9
20260905033622 77 0 0.0 2.0 0.00 0.57 0.57 82 1014.9
20260905033550 77 0 0.0 2.0 0.00 0.57 0.57 82 1014.9
20260905033433 77 0 0.0 2.0 0.00 0.57 0.57 82 1014.9
20260905032602 77 0 0.0 1.0 0.00 0.57 0.57 82 1014.9
20260905032423 77 165 0.0 2.0 0.00 0.57 0.57 82 1015.0